Theta_e
333 328 328 325 315 317 313 316 319 316 316 322 325 327 326 329 329 327 351 346 348 356 360 361 365 367 367 367 365 364 362 361 362 362 362 362 362 362 362 362 360 358 356 352 350 350 351 352 353
326 325 324 321 312 310 313 319 316 318 320 322 323 325 325 327 338 342 343 347 350 357 360 359 364 366 366 366 365 363 362 361 362 362 362 362 362 362 361 360 359 356 353 350 348 349 351 353 353
326 324 317 315 313 311 312 319 319 319 321 321 321 327 328 329 337 345 350 351 351 356 359 363 364 365 365 365 365 363 362 362 362 362 362 362 362 362 361 360 359 355 352 348 347 349 350 352 353
320 320 318 310 310 316 317 321 320 319 320 321 322 321 330 337 339 348 351 351 353 352 355 361 363 364 364 364 364 363 363 363 363 363 362 362 361 361 360 360 358 355 351 347 346 346 347 348 348
319 316 310 309 310 316 318 320 319 318 319 319 320 318 324 339 346 349 350 351 353 352 353 362 362 363 364 364 364 363 363 363 363 363 362 361 361 359 359 358 356 354 350 347 345 344 345 345 344
312 313 305 305 309 315 316 320 319 319 319 319 318 318 323 335 344 347 349 352 353 352 353 362 360 362 362 363 362 362 362 362 363 363 362 361 359 358 357 357 356 355 352 349 346 345 345 344 343
308 308 303 305 308 311 314 320 317 317 319 317 320 316 325 327 332 348 350 353 352 353 352 358 356 359 361 361 361 361 361 361 361 361 360 360 358 357 356 356 355 353 352 351 348 345 344 342 342
311 308 304 306 304 306 314 316 318 317 315 321 319 315 318 324 329 335 348 349 350 351 351 356 354 352 354 357 360 360 360 360 360 360 359 359 356 355 354 354 353 351 350 349 348 346 344 343 344
314 305 302 303 305 307 313 311 315 318 315 317 319 318 322 323 326 332 338 345 346 347 351 355 352 352 351 350 355 358 359 359 359 359 358 356 352 354 352 349 354 351 349 348 348 347 346 345 346
308 304 304 309 309 309 311 311 312 312 312 312 315 319 321 322 323 328 332 336 342 344 347 353 355 354 352 349 355 352 350 352 353 353 356 353 351 350 344 349 353 350 349 348 348 348 347 344 335
309 303 308 309 309 310 309 309 312 309 308 311 312 315 319 320 322 323 328 333 338 344 346 349 357 361 354 350 351 353 347 347 349 351 356 358 351 349 343 345 345 345 348 340 343 342 340 337 338
305 308 309 310 310 309 307 309 308 310 310 314 315 316 317 317 319 321 324 329 334 342 346 349 355 362 363 353 350 353 346 348 347 346 359 359 352 354 352 343 345 347 340 342 343 338 344 342 343
306 307 308 309 309 309 309 307 307 308 311 313 314 314 315 316 318 322 324 326 332 338 346 349 354 363 366 367 354 354 353 349 350 350 354 354 351 354 349 350 342 343 341 341 340 341 342 342 343
308 307 307 308 308 308 306 306 308 309 312 312 312 313 313 315 317 320 323 325 329 340 345 348 353 363 362 363 364 360 360 351 350 349 352 356 353 356 347 349 345 343 343 340 341 343 342 342 343
307 303 306 306 307 306 308 304 305 310 312 311 311 313 314 315 316 318 321 326 330 333 341 345 353 358 364 363 361 362 355 354 350 351 361 360 360 359 354 348 348 347 351 352 347 345 344 341 344
304 304 300 306 307 308 306 300 308 312 310 310 310 311 312 314 316 318 321 323 326 330 332 335 343 352 363 364 361 360 357 355 353 354 357 360 357 358 359 348 347 349 350 348 345 341 338 339 341
303 297 300 302 307 305 304 301 307 311 310 309 311 311 312 314 316 319 320 322 324 328 331 333 338 343 353 366 361 363 366 360 358 357 356 360 360 359 355 351 349 357 349 348 345 343 343 341 342
298 299 300 300 304 304 303 302 306 309 309 309 311 312 312 313 315 319 320 322 324 327 331 333 334 344 354 354 363 357 357 361 360 358 356 362 361 359 359 354 350 356 349 348 347 348 346 343 343
302 300 300 302 305 303 303 303 306 309 309 309 310 311 312 313 317 318 320 322 323 327 330 334 335 341 342 340 346 350 350 355 356 357 361 361 361 358 359 353 356 351 351 352 354 350 351 344 348
301 299 299 302 305 304 303 302 306 308 309 310 310 311 312 314 315 317 319 320 320 326 329 332 334 339 341 339 348 349 352 351 354 354 360 360 359 361 358 358 356 355 348 353 352 351 342 342 346
301 299 299 299 303 305 303 300 303 307 309 310 311 312 313 313 314 316 317 319 322 324 327 329 332 335 339 346 347 355 354 353 349 350 352 356 359 359 359 361 358 358 355 349 353 351 346 337 343
297 303 301 300 298 295 304 294 303 306 307 309 311 312 312 313 315 316 317 319 321 322 324 327 331 334 336 342 342 347 345 343 344 346 348 354 359 358 358 360 360 361 353 351 352 351 347 346 340
299 303 302 301 299 299 299 296 301 306 305 307 310 311 313 315 315 315 315 318 319 321 322 325 329 332 335 339 344 337 341 340 343 345 352 357 360 359 354 359 359 357 353 352 352 352 351 346 341
304 301 301 302 299 293 298 298 299 303 306 308 311 310 312 313 313 315 316 318 318 319 320 322 325 331 332 334 337 343 344 343 340 344 344 346 347 355 359 356 358 358 356 355 352 355 352 350 346
303 299 292 292 292 292 301 299 301 306 308 308 308 310 312 313 313 313 314 314 316 317 319 320 322 324 329 330 333 336 341 345 346 346 342 344 344 346 356 358 354 355 356 355 352 353 353 353 347
301 299 292 286 289 293 301 296 301 308 309 310 310 311 311 311 312 313 313 314 315 317 319 319 320 322 324 326 329 334 338 332 334 342 341 342 342 346 358 358 357 356 357 357 357 352 351 353 350
300 295 302 296 298 293 296 301 306 309 308 308 309 310 310 311 311 312 313 314 315 317 319 320 320 322 324 326 329 333 334 338 336 341 348 345 349 345 347 355 355 356 354 354 355 349 351 351 352
300 303 294 296 288 287 292 296 298 303 304 307 307 309 310 310 311 311 312 313 315 317 319 320 321 321 323 324 326 329 333 334 335 341 344 347 349 350 349 350 352 352 352 345 351 350 350 350 350
298 297 297 297 296 289 288 293 305 304 305 306 307 309 309 310 310 310 311 314 315 317 317 318 319 319 321 323 324 325 328 332 333 335 338 343 346 348 339 342 345 346 347 349 349 348 344 344 346
302 298 298 293 292 296 294 294 307 307 308 308 307 309 309 309 309 311 312 313 313 315 316 316 318 318 318 319 322 324 325 327 325 327 334 337 335 335 333 335 335 335 335 341 339 336 335 336 338
Wind_Speed
21 12 10 10 9 10 17 14 3 3 10 4 2 10 14 13 16 8 8 6 15 18 19 18 15 15 14 13 13 12 13 13 13 13 13 12 12 11 11 11 10 9 9 9 9 10 10 10 9
15 15 10 9 10 15 13 4 9 5 7 3 3 5 6 15 12 9 12 7 13 17 16 17 14 14 14 13 13 13 12 12 12 12 12 12 11 11 11 11 10 10 10 9 9 9 9 8 8
18 12 10 12 14 17 11 2 7 5 3 1 2 5 6 11 6 6 15 10 14 15 16 16 14 14 14 13 11 12 13 12 11 12 11 11 10 10 10 10 10 9 9 9 9 9 8 8 6
11 10 9 11 18 17 8 9 8 5 5 1 1 7 10 7 4 7 13 11 13 14 16 20 15 14 14 13 13 12 13 12 11 11 11 10 10 8 8 9 8 9 9 9 8 7 7 7 6
9 9 13 16 20 20 5 6 1 7 4 2 7 6 6 10 8 11 10 10 11 13 15 17 15 15 15 15 13 12 13 13 12 11 10 10 10 9 8 8 8 8 9 8 8 7 5 5 6
10 10 15 17 21 18 6 10 9 11 2 1 7 2 8 10 10 8 8 8 10 12 12 15 14 13 13 13 14 14 13 13 13 12 11 10 9 9 9 8 7 7 7 8 7 6 6 4 4
14 13 17 21 19 18 16 14 11 12 12 5 5 9 11 14 7 2 3 7 9 12 12 14 17 14 14 13 13 13 13 13 13 13 12 10 9 7 7 7 7 7 7 6 7 6 5 4 5
12 12 20 18 17 20 6 13 10 14 10 4 2 9 4 12 4 4 7 7 9 12 13 14 15 16 15 14 13 13 13 13 12 11 12 11 11 9 7 4 6 5 6 7 7 6 6 6 6
11 13 14 19 15 14 14 12 11 4 8 10 12 10 13 5 5 7 7 9 8 10 11 13 15 15 15 15 14 11 13 12 13 12 11 11 9 11 12 11 11 9 6 6 6 6 7 7 9
12 13 19 15 8 9 12 8 13 7 12 15 15 14 13 8 8 8 9 10 10 11 12 12 13 14 14 12 13 13 13 12 12 13 14 11 11 10 11 12 13 10 7 7 8 8 8 8 9
16 17 13 8 4 12 11 10 12 13 17 16 15 13 13 9 10 11 12 12 13 13 11 12 13 12 14 12 10 8 8 9 9 14 12 12 10 9 8 8 8 8 11 8 10 9 9 11 9
18 16 16 12 6 10 13 14 16 14 13 16 13 9 10 13 13 15 14 16 15 17 14 12 14 10 11 9 9 10 10 10 9 12 13 9 8 8 7 8 9 8 8 9 8 7 7 7 7
16 18 11 13 13 12 12 14 15 15 14 10 13 13 13 13 14 13 13 12 12 13 14 13 12 13 10 9 9 9 9 8 10 10 12 10 11 8 9 8 9 9 9 9 8 7 5 6 8
10 15 16 11 14 14 15 16 16 15 10 13 12 13 14 15 15 13 10 6 10 11 6 10 12 10 11 10 11 8 8 11 10 11 11 14 9 9 10 9 9 9 8 9 8 7 7 7 7
12 12 14 16 16 16 13 18 20 18 12 15 11 14 12 12 11 12 11 10 10 9 7 8 11 14 14 15 13 10 11 12 11 11 14 15 13 10 11 10 8 8 6 6 6 5 6 6 6
14 17 16 18 21 16 9 16 14 11 9 14 14 14 10 12 14 14 11 7 8 9 8 9 10 14 15 13 11 11 12 12 12 11 10 15 15 14 12 10 10 9 7 7 7 9 9 8 7
15 14 18 15 12 9 13 13 14 8 9 11 10 11 12 12 10 10 10 10 7 8 8 8 9 12 11 13 11 12 12 12 11 11 11 16 16 16 10 11 9 9 7 8 9 6 8 7 6
15 18 14 14 9 9 16 16 15 10 13 14 12 13 13 12 12 11 9 7 5 5 6 6 7 9 9 9 10 11 11 10 11 11 11 12 13 14 13 10 6 13 10 9 8 7 8 8 5
18 14 13 7 9 7 13 16 16 13 12 14 14 14 14 15 12 11 9 8 6 6 6 6 7 6 7 10 11 11 12 12 13 12 13 12 11 14 15 12 10 9 8 5 11 9 7 5 4
13 16 16 15 14 11 16 17 16 16 17 17 16 16 15 14 13 12 11 2 3 7 7 6 6 7 7 9 9 10 10 13 13 12 12 13 13 14 14 15 13 13 10 11 12 11 9 8 7
16 17 16 16 11 12 15 19 21 20 23 20 16 16 14 14 13 11 1 3 6 7 8 8 8 8 8 9 9 9 10 11 11 12 12 13 15 14 15 15 13 13 13 12 11 12 13 9 7
17 16 16 15 15 14 17 14 13 13 12 14 15 14 15 10 3 1 3 6 6 9 7 7 8 8 9 8 10 14 12 13 13 13 12 13 17 17 17 16 15 13 13 14 14 12 11 9 10
15 14 14 15 15 18 18 14 15 16 16 13 10 11 5 7 2 4 5 6 8 8 8 8 8 9 10 10 10 11 13 13 12 12 13 12 12 16 18 17 17 16 13 13 14 15 13 14 11
11 10 14 16 16 18 20 19 16 16 16 12 13 5 7 4 4 6 5 8 10 9 11 8 10 10 10 10 11 12 14 15 14 13 12 11 12 13 16 17 16 16 15 14 14 15 16 14 12
15 14 12 16 16 17 19 18 15 6 7 7 3 3 5 4 7 6 7 10 11 12 12 13 12 12 12 13 12 13 14 15 16 16 13 13 12 11 16 17 16 14 15 15 14 14 14 14 13
19 18 14 18 17 18 19 11 8 6 4 6 2 5 5 8 5 8 10 10 12 11 13 14 13 13 13 14 13 12 13 12 13 14 14 12 13 12 13 17 16 18 17 16 15 12 13 13 14
13 17 16 20 21 19 19 25 23 15 18 13 13 7 8 5 7 11 13 12 10 10 12 12 13 11 13 14 11 12 12 13 13 17 13 13 15 11 15 17 17 18 17 16 14 12 12 12 12
19 15 11 10 11 20 15 17 7 10 4 6 7 10 9 5 10 13 14 13 10 10 9 10 12 12 13 10 13 13 11 11 13 13 15 14 13 13 12 17 17 16 18 16 13 12 13 12 9
12 16 18 18 17 11 15 12 11 4 4 10 6 9 8 12 12 13 13 11 12 9 9 8 8 11 11 11 10 12 11 11 14 12 13 15 13 14 11 11 14 17 16 14 13 14 13 16 13
20 21 17 11 11 13 13 13 15 13 16 12 7 12 15 11 11 13 12 12 12 12 8 10 9 11 9 10 11 11 11 10 6 10 11 11 11 11 12 13 13 14 14 11 12 12 12 13 13
Wind_Direction
288 297 297 263 246 232 256 232 50 176 204 39 326 315 5 21 7 37 104 123 127 126 148 153 139 139 145 149 154 155 155 159 156 151 149 149 148 148 144 141 141 141 136 128 121 122 122 122 119
299 295 270 271 250 248 224 150 185 80 28 249 218 243 228 78 32 95 133 123 138 129 147 157 140 140 143 148 153 156 157 161 158 153 154 153 152 150 149 148 152 151 142 132 132 131 132 131 131
261 272 279 244 239 255 278 79 88 118 197 277 213 320 29 53 68 70 87 137 135 142 155 140 142 139 145 151 151 156 158 159 158 154 155 156 155 152 155 156 157 153 144 144 145 143 144 143 151
277 236 237 257 254 238 290 225 96 222 160 350 349 98 111 49 27 51 127 144 142 154 159 136 145 142 144 151 155 158 155 153 154 154 155 158 157 154 160 157 159 156 154 152 149 152 155 158 170
238 261 254 242 243 260 264 359 139 263 15 66 307 101 103 83 82 109 136 150 158 155 155 152 149 149 150 153 156 158 154 149 148 150 155 160 155 156 163 164 168 165 160 156 156 161 162 172 188
243 240 239 239 240 248 193 262 229 262 193 270 252 227 104 110 96 121 144 158 164 152 155 147 149 148 149 156 158 157 155 152 151 150 155 158 157 161 169 172 179 174 162 159 164 173 174 185 206
255 236 243 255 253 234 198 238 257 264 252 246 50 262 109 109 62 24 170 150 158 154 165 151 171 166 155 162 162 162 157 157 155 152 150 150 157 165 178 178 185 174 162 162 170 181 195 208 223
236 249 266 255 256 252 184 231 243 247 259 23 273 238 199 59 3 229 216 168 174 163 167 158 178 179 183 177 170 167 165 160 156 156 152 154 158 168 181 183 188 188 177 178 184 191 205 218 238
231 256 238 241 248 255 270 246 239 240 288 262 255 280 310 26 308 237 208 188 191 171 170 169 178 181 192 187 177 175 175 173 162 162 165 161 203 183 180 196 155 176 189 197 208 211 219 232 238
225 228 245 261 300 276 271 211 252 217 242 252 249 241 252 257 270 263 217 217 193 188 192 176 183 182 196 201 173 198 196 201 203 199 189 213 214 202 200 174 160 172 192 207 214 222 234 237 253
216 248 248 249 242 277 289 279 259 256 257 258 258 256 249 248 243 263 253 239 207 200 202 191 180 180 199 207 178 189 202 202 205 210 204 196 206 203 199 160 176 194 191 213 198 205 228 232 247
236 242 261 277 256 244 248 246 255 257 270 282 285 284 269 263 263 249 233 248 236 190 192 198 177 189 194 212 192 191 203 193 197 201 195 205 212 196 200 212 193 192 188 208 216 211 228 245 269
223 257 231 257 256 249 267 258 257 255 242 261 266 250 253 254 249 252 261 255 278 224 180 197 205 190 196 233 215 207 205 199 196 196 193 213 199 202 195 208 220 182 209 187 218 219 229 237 244
218 241 260 240 248 238 247 255 247 241 250 243 240 234 250 245 239 251 246 254 250 265 206 196 205 188 192 211 238 205 214 217 204 202 199 201 208 193 202 215 210 213 209 206 203 209 212 216 245
265 252 239 238 243 245 244 256 250 244 231 241 241 247 239 256 256 247 255 235 213 235 245 240 215 197 202 210 218 239 216 219 210 215 195 190 207 207 205 205 203 221 207 225 215 218 207 241 237
241 239 252 239 215 225 226 260 256 201 209 229 235 236 233 241 242 245 240 259 269 279 245 208 241 199 197 216 218 224 227 228 228 210 210 196 196 205 196 206 204 206 217 190 230 204 228 215 222
222 252 228 242 169 248 198 260 223 154 219 233 240 239 235 234 218 249 258 255 255 257 256 264 261 247 213 202 225 224 233 226 223 232 208 198 204 201 197 210 197 200 217 207 216 209 227 223 212
230 216 232 261 183 203 251 242 262 201 235 247 235 242 243 241 242 226 212 275 299 330 330 305 279 284 297 244 205 236 230 231 235 230 234 207 197 202 212 211 212 177 188 203 244 222 210 216 198
289 281 291 278 238 253 268 273 268 252 252 256 249 247 244 246 245 245 232 223 282 310 314 308 316 271 240 243 232 227 232 227 231 230 229 229 187 207 214 219 218 216 202 215 206 209 232 212 258
259 258 259 260 262 254 266 265 269 258 246 251 252 250 248 247 245 246 229 93 308 295 289 292 286 286 266 248 242 252 239 229 224 225 223 222 217 207 211 217 205 204 192 206 222 197 198 215 208
244 255 264 261 274 221 255 263 253 249 242 245 249 255 256 260 262 258 34 314 301 298 297 309 315 305 285 278 271 240 242 261 246 218 219 215 216 217 217 213 224 196 201 200 195 196 195 200 199
245 239 244 260 258 261 255 278 267 274 266 221 221 235 250 264 106 35 315 276 299 285 317 304 319 315 294 270 261 266 267 237 232 238 227 209 204 215 214 220 208 220 200 218 190 199 196 194 194
257 271 277 274 266 270 261 258 263 252 240 228 240 235 215 49 46 270 279 302 301 306 307 319 331 312 304 295 285 277 255 259 252 246 248 223 203 205 217 212 216 209 208 205 200 185 199 200 227
280 258 257 256 257 252 255 256 262 258 258 224 203 168 233 168 289 260 290 301 287 318 312 321 315 294 309 296 282 270 266 278 278 252 243 234 217 195 210 220 207 209 201 196 203 194 193 217 224
222 242 258 251 237 250 246 240 249 294 310 276 214 291 115 173 254 276 289 302 320 304 318 313 305 309 301 293 289 273 270 264 265 270 263 258 230 214 191 199 207 203 203 212 211 202 207 204 217
248 246 258 272 276 286 295 264 282 309 334 254 249 295 279 236 289 316 299 302 305 317 313 309 304 302 301 294 292 287 274 264 259 246 253 249 254 242 198 189 200 209 207 211 207 213 210 208 216
271 256 279 297 282 273 275 280 277 237 189 217 245 198 227 265 307 293 299 308 313 314 309 307 299 298 303 308 299 289 274 269 270 274 270 240 257 245 249 196 197 207 207 209 209 218 207 215 217
272 298 293 265 275 262 256 273 293 355 298 264 248 224 227 261 284 300 307 299 306 308 307 329 324 305 307 315 313 308 301 269 262 260 260 261 257 251 284 196 199 208 213 206 198 211 219 221 221
238 238 238 244 253 261 280 273 304 306 252 289 210 228 255 263 303 311 299 300 300 301 313 321 318 309 303 320 315 304 308 310 322 262 254 252 246 246 253 204 211 211 214 204 202 220 230 200 215
261 268 248 260 265 266 279 269 291 287 268 261 285 279 267 309 305 285 291 302 292 292 302 308 311 304 311 311 314 310 319 309 333 312 294 237 223 211 218 197 199 201 203 194 204 212 228 232 214